This demonstration page uses our WeatherBlox Daily Observations layout. Learn more.

Left ArrowRight Arrow

Hourly Observations for February 15, 2020

Temp ( °F °C ) Dew Point ( °F °C ) Humidity (%) Winds ( mph kmh ) Pressure ( in mb ) Visibility ( mi km ) Precip ( " mm )
12:56 am 00:56 Clear 24 -4.4 20 -6.7 84 84 SSW 10 17 29.95 1014 10 16 0.00 0.00
1:56 am 01:56 Clear 24 -4.4 20 -6.7 84 84 SSW 6 9 29.95 1014 10 16 0.00 0.00
2:56 am 02:56 Clear 23 -5 19 -7.2 85 85 N 9 15 29.99 1016 10 16 0.00 0.00
3:56 am 03:56 Clear 17 -8.3 15 -9.4 92 92 Calm 29.99 1016 10 16 0.00 0.00
4:56 am 04:56 Clear 18 -7.8 16 -8.9 92 92 SSW 3 6 30.02 1017 10 16 0.00 0.00
5:56 am 05:56 Clear 20 -6.7 18 -7.8 92 92 WSW 5 7 30.04 1017 10 16 0.00 0.00
6:56 am 06:56 Clear 20 -6.7 18 -7.8 92 92 WNW 7 11 30.06 1018 10 16 0.00 0.00
7:56 am 07:56 Sunny 20 -6.7 18 -7.8 92 92 NW 7 11 30.10 1019 10 16 0.00 0.00
8:56 am 08:56 Sunny 30 -1.1 26 -3.3 85 85 NW 6 9 30.11 1020 10 16 0.00 0.00
9:56 am 09:56 Sunny 37 2.8 24 -4.4 59 59 N 16 26 30.13 1020 10 16 0.00 0.00
10:56 am 10:56 Sunny 41 5 22 -5.6 47 47 N 15 24 30.12 1020 10 16 0.00 0.00
11:56 am 11:56 Sunny 43 6.1 20 -6.7 40 40 N 12 19 30.12 1020 10 16 0.00 0.00
12:56 pm 12:56 Sunny 46 7.8 20 -6.7 35 35 N 12 19 30.11 1020 10 16 0.00 0.00
1:56 pm 13:56 Sunny 47 8.3 19 -7.2 33 33 NNW 10 17 30.08 1019 10 16 0.00 0.00
2:56 pm 14:56 Sunny 48 8.9 17 -8.3 29 29 WSW 5 7 30.07 1018 10 16 0.00 0.00
3:56 pm 15:56 Sunny 49 9.4 14 -10 25 25 NW 6 9 30.07 1018 10 16 0.00 0.00
4:56 pm 16:56 Sunny 49 9.4 14 -10 25 25 WNW 6 9 30.06 1018 10 16 0.00 0.00
5:56 pm 17:56 Sunny 42 5.6 16 -8.9 35 35 S 6 9 30.08 1019 10 16 0.00 0.00
6:56 pm 18:56 Clear 33 0.6 16 -8.9 49 49 SSE 8 13 30.09 1019 10 16 0.00 0.00
7:56 pm 19:56 Clear 31 -0.6 19 -7.2 61 61 S 8 13 30.10 1019 10 16 0.00 0.00
8:56 pm 20:56 Clear 32 0 19 -7.2 59 59 S 8 13 30.09 1019 10 16 0.00 0.00
9:56 pm 21:56 Clear 33 0.6 18 -7.8 54 54 SSW 12 19 30.07 1018 10 16 0.00 0.00
10:56 pm 22:56 Cloudy 34 1.1 19 -7.2 54 54 SSW 9 15 30.07 1018 10 16 0.00 0.00
11:56 pm 23:56 Cloudy 35 1.7 18 -7.8 50 50 SSW 10 17 30.07 1018 10 16 0.00 0.00

Powered by AerisWeather